sat.trackr.live / text

‹ back to catalog

ONEWEB-0402

NORAD 50482 · 2021-132P

PAYLOAD ACTIVE UNKNOWN

§ Identity

Operator
Country
UK
Launch date
2021-12-27
Launch site
TYMSC
Launch vehicle
Mass (kg)
RCS (m²)

Purposes: comms

External: N2YO · Heavens-Above · Gunter

§ Orbital elements

Epoch: 2026-05-25T02:27:35.337312Z

Period
109.20 min
Inclination
87.9170°
Eccentricity
0.0002049
Mean motion
13.18687191 rev/d
Perigee alt
1,188.2 km
Apogee alt
1,191.3 km
Semi-major
7,567.9 km
B*
-1.2119e-4
RAAN
340.0248°
Arg perigee
75.3528°
Mean anomaly
284.7831°
Rev number
21,859

§ Raw data

ONEWEB-04021 50482U 21132P   26145.10249233 -.00000035  00000+0 -12119-3 0  99962 50482  87.9170 340.0248 0002049  75.3528 284.7831 13.18687191218592

JSON: /api/v1/satellites/50482 · /tle

For live sub-satellite position, see the globe view (requires WebGL).

§ Visibility from observer

Set your observer location to see the next 7 days of passes ≥ 10°. The values pass through the URL so the page stays shareable.

No JS? Fill the form by hand. The geolocation button needs JavaScript.